ARG1550 SABE-SACO

Flight info

Callsign ARG1550
Flight time 1h 7m
Altitude 34000
Route ATOVO4B ATOVO UW5 ASISA ASISA1Q
Aircraft B738/M-SDE2E3FGHIRWXY/LB1

Departure

Time 2026-05-03 23:50
Airport Aeroparque Jorge Newbery (SABE)

Arrival

Time 2026-05-04 00:57
Airport Ingeniero Aeronáutico Ambrosio L.V. Taravella International Airport (SACO)
Time Latitude Longitude Altitude Speed Heading
2026-05-03 23:12 -34.55740 -58.41358 27 ft 0 kts 32°
2026-05-03 23:37 -34.55746 -58.41362 27 ft 2 kts 31°
2026-05-03 23:37 -34.55754 -58.41368 27 ft 1 kts 32°
2026-05-03 23:37 -34.55768 -58.41375 27 ft 2 kts 359°
2026-05-03 23:37 -34.55783 -58.41371 27 ft 2 kts 332°
2026-05-03 23:38 -34.55794 -58.41361 27 ft 0 kts 307°
2026-05-03 23:38 -34.55797 -58.41354 27 ft 1 kts 303°
2026-05-03 23:38 -34.55798 -58.41353 27 ft 0 kts 303°
2026-05-03 23:41 -34.55795 -58.41358 27 ft 2 kts 303°
2026-05-03 23:41 -34.55768 -58.41410 27 ft 10 kts 301°
2026-05-03 23:42 -34.55730 -58.41490 27 ft 9 kts 297°
2026-05-03 23:42 -34.55736 -58.41558 27 ft 8 kts 226°
2026-05-03 23:42 -34.55786 -58.41583 27 ft 7 kts 168°
2026-05-03 23:42 -34.55827 -58.41521 27 ft 12 kts 116°
2026-05-03 23:43 -34.55873 -58.41412 27 ft 16 kts 116°
2026-05-03 23:43 -34.55936 -58.41277 27 ft 18 kts 123°
2026-05-03 23:43 -34.56012 -58.41150 27 ft 18 kts 126°
2026-05-03 23:43 -34.56088 -58.41029 27 ft 17 kts 127°
2026-05-03 23:44 -34.56155 -58.40917 27 ft 11 kts 123°
2026-05-03 23:44 -34.56169 -58.40840 27 ft 9 kts 101°
2026-05-03 23:44 -34.56211 -58.40749 27 ft 15 kts 123°
2026-05-03 23:44 -34.56279 -58.40626 27 ft 18 kts 124°
2026-05-03 23:45 -34.56364 -58.40518 27 ft 17 kts 138°
2026-05-03 23:45 -34.56430 -58.40447 27 ft 4 kts 138°
2026-05-03 23:45 -34.56437 -58.40439 27 ft 0 kts 138°
2026-05-03 23:47 -34.56439 -58.40437 27 ft 1 kts 138°
2026-05-03 23:47 -34.56449 -58.40427 27 ft 2 kts 138°
2026-05-03 23:47 -34.56475 -58.40398 27 ft 6 kts 139°
2026-05-03 23:48 -34.56525 -58.40389 27 ft 7 kts 202°
2026-05-03 23:48 -34.56549 -58.40440 27 ft 7 kts 280°
2026-05-03 23:48 -34.56527 -58.40492 27 ft 6 kts 303°
2026-05-03 23:48 -34.56506 -58.40530 27 ft 4 kts 303°
2026-05-03 23:49 -34.56488 -58.40561 27 ft 4 kts 303°
2026-05-03 23:49 -34.56473 -58.40589 27 ft 3 kts 304°
2026-05-03 23:49 -34.56458 -58.40615 27 ft 3 kts 304°
2026-05-03 23:49 -34.56440 -58.40647 27 ft 8 kts 304°
2026-05-03 23:50 -34.56309 -58.40881 27 ft 68 kts 304°
2026-05-03 23:50 -34.55912 -58.41592 27 ft 133 kts 303°
2026-05-03 23:50 -34.55338 -58.42669 304 ft 158 kts 304°
2026-05-03 23:50 -34.54773 -58.43764 965 ft 159 kts 306°
2026-05-03 23:51 -34.54037 -58.44733 1606 ft 160 kts 334°
2026-05-03 23:51 -34.52941 -58.45002 2122 ft 167 kts
2026-05-03 23:51 -34.51768 -58.44634 2550 ft 183 kts 24°
2026-05-03 23:51 -34.50645 -58.43797 3002 ft 198 kts 31°
2026-05-03 23:52 -34.49453 -58.42846 3441 ft 214 kts 30°
2026-05-03 23:52 -34.48114 -58.41828 3854 ft 234 kts 29°
2026-05-03 23:52 -34.46691 -58.40767 4350 ft 250 kts 28°
2026-05-03 23:52 -34.45169 -58.39632 4959 ft 260 kts 28°
2026-05-03 23:53 -34.43614 -58.38467 5706 ft 264 kts 28°
2026-05-03 23:53 -34.42045 -58.37293 6418 ft 270 kts 28°
2026-05-03 23:53 -34.40360 -58.36267 7162 ft 272 kts 15°
2026-05-03 23:53 -34.38509 -58.35976 7916 ft 270 kts 352°
2026-05-03 23:54 -34.36720 -58.36552 8650 ft 271 kts 333°
2026-05-03 23:54 -34.35173 -58.37846 9459 ft 270 kts 309°
2026-05-03 23:54 -34.34229 -58.39780 10259 ft 272 kts 293°
2026-05-03 23:54 -34.33503 -58.41925 10786 ft 286 kts 291°
2026-05-03 23:55 -34.32740 -58.44221 11287 ft 301 kts 291°
2026-05-03 23:55 -34.31903 -58.46593 11797 ft 314 kts 292°
2026-05-03 23:55 -34.30992 -58.49065 12491 ft 322 kts 292°
2026-05-03 23:55 -34.30069 -58.51529 13315 ft 325 kts 292°
2026-05-03 23:56 -34.29140 -58.53999 14074 ft 330 kts 292°
2026-05-03 23:56 -34.28182 -58.56551 14937 ft 332 kts 292°
2026-05-03 23:56 -34.27226 -58.59103 15765 ft 336 kts 291°
2026-05-03 23:56 -34.26264 -58.61671 16550 ft 339 kts 291°
2026-05-03 23:57 -34.25298 -58.64248 17306 ft 343 kts 291°
2026-05-03 23:57 -34.24303 -58.66900 18048 ft 347 kts 291°
2026-05-03 23:57 -34.23309 -58.69547 18811 ft 350 kts 291°
2026-05-03 23:57 -34.22295 -58.72243 19614 ft 351 kts 291°
2026-05-03 23:58 -34.21286 -58.74927 20264 ft 356 kts 291°
2026-05-03 23:58 -34.20253 -58.77675 21004 ft 359 kts 291°
2026-05-03 23:58 -34.19219 -58.80417 21718 ft 361 kts 291°
2026-05-03 23:58 -34.18180 -58.83170 22356 ft 364 kts 291°
2026-05-03 23:59 -34.17115 -58.85993 23008 ft 367 kts 291°
2026-05-03 23:59 -34.16056 -58.88797 23643 ft 370 kts 290°
2026-05-03 23:59 -34.14981 -58.91644 24253 ft 373 kts 291°
2026-05-03 23:59 -34.13907 -58.94484 24858 ft 376 kts 290°
2026-05-04 00:00 -34.12818 -58.97358 25461 ft 379 kts 290°
2026-05-04 00:00 -34.11721 -59.00253 26017 ft 382 kts 290°
2026-05-04 00:00 -34.10596 -59.03222 26588 ft 385 kts 290°
2026-05-04 00:00 -34.09484 -59.06148 27105 ft 388 kts 290°
2026-05-04 00:01 -34.08354 -59.09120 27684 ft 390 kts 290°
2026-05-04 00:01 -34.07189 -59.12091 28174 ft 394 kts 292°
2026-05-04 00:01 -34.05863 -59.15005 28684 ft 399 kts 297°
2026-05-04 00:01 -34.04269 -59.17798 29152 ft 405 kts 302°
2026-05-04 00:02 -34.02521 -59.20462 29655 ft 409 kts 304°
2026-05-04 00:02 -34.00683 -59.23102 30113 ft 412 kts 305°
2026-05-04 00:02 -33.98815 -59.25737 30789 ft 409 kts 305°
2026-05-04 00:02 -33.96962 -59.28341 31492 ft 405 kts 305°
2026-05-04 00:03 -33.95150 -59.30897 32076 ft 403 kts 304°
2026-05-04 00:03 -33.93325 -59.33485 32580 ft 403 kts 304°
2026-05-04 00:03 -33.91521 -59.36053 33124 ft 401 kts 304°
2026-05-04 00:03 -33.89717 -59.38624 33688 ft 398 kts 304°
2026-05-04 00:04 -33.87929 -59.41179 34128 ft 398 kts 304°
2026-05-04 00:04 -33.86138 -59.43748 34176 ft 403 kts 304°
2026-05-04 00:04 -33.82538 -59.48909 34176 ft 398 kts 304°
2026-05-04 00:05 -33.78984 -59.53981 34177 ft 396 kts 304°
2026-05-04 00:05 -33.75428 -59.59060 34173 ft 398 kts 304°
2026-05-04 00:06 -33.71883 -59.64122 34172 ft 397 kts 304°
2026-05-04 00:06 -33.68296 -59.69234 34170 ft 397 kts 304°
2026-05-04 00:07 -33.64732 -59.74294 34168 ft 398 kts 304°
2026-05-04 00:07 -33.61142 -59.79385 34168 ft 398 kts 304°
2026-05-04 00:08 -33.57567 -59.84444 34166 ft 398 kts 304°
2026-05-04 00:08 -33.53976 -59.89520 34166 ft 397 kts 304°
2026-05-04 00:09 -33.50388 -59.94587 34166 ft 398 kts 304°
2026-05-04 00:09 -33.46786 -59.99665 34166 ft 398 kts 304°
2026-05-04 00:10 -33.43201 -60.04714 34163 ft 398 kts 304°
2026-05-04 00:10 -33.39595 -60.09784 34165 ft 399 kts 304°
2026-05-04 00:11 -33.35981 -60.14852 34166 ft 399 kts 304°
2026-05-04 00:11 -33.32394 -60.19878 34164 ft 399 kts 304°
2026-05-04 00:12 -33.28760 -60.24965 34163 ft 399 kts 304°
2026-05-04 00:12 -33.25137 -60.30033 34161 ft 398 kts 304°
2026-05-04 00:13 -33.21519 -60.35087 34162 ft 399 kts 305°
2026-05-04 00:13 -33.17912 -60.40110 34163 ft 398 kts 305°
2026-05-04 00:14 -33.14302 -60.45137 34163 ft 399 kts 304°
2026-05-04 00:14 -33.10690 -60.50159 34162 ft 398 kts 305°
2026-05-04 00:15 -33.07064 -60.55195 34170 ft 400 kts 304°
2026-05-04 00:15 -33.03450 -60.60207 34169 ft 398 kts 305°
2026-05-04 00:16 -32.99817 -60.65229 34176 ft 400 kts 305°
2026-05-04 00:16 -32.96178 -60.70262 34177 ft 398 kts 305°
2026-05-04 00:17 -32.92558 -60.75261 34170 ft 398 kts 305°
2026-05-04 00:17 -32.89288 -60.80538 34177 ft 393 kts 297°
2026-05-04 00:18 -32.86477 -60.86101 34174 ft 392 kts 295°
2026-05-04 00:18 -32.83747 -60.91707 34173 ft 392 kts 295°
2026-05-04 00:19 -32.81007 -60.97297 34169 ft 391 kts 295°
2026-05-04 00:19 -32.78246 -61.02895 34162 ft 391 kts 296°
2026-05-04 00:20 -32.75481 -61.08464 34160 ft 391 kts 295°
2026-05-04 00:20 -32.72705 -61.14053 34149 ft 392 kts 295°
2026-05-04 00:21 -32.69942 -61.19606 34146 ft 391 kts 295°
2026-05-04 00:21 -32.67171 -61.25170 34146 ft 390 kts 295°
2026-05-04 00:22 -32.64399 -61.30716 34145 ft 390 kts 295°
2026-05-04 00:22 -32.61618 -61.36279 34139 ft 392 kts 295°
2026-05-04 00:23 -32.58838 -61.41830 34136 ft 391 kts 295°
2026-05-04 00:23 -32.56062 -61.47366 34140 ft 392 kts 295°
2026-05-04 00:24 -32.53273 -61.52919 34138 ft 391 kts 295°
2026-05-04 00:24 -32.50481 -61.58471 34131 ft 392 kts 295°
2026-05-04 00:25 -32.47697 -61.63995 34135 ft 391 kts 295°
2026-05-04 00:25 -32.44875 -61.69587 34132 ft 393 kts 296°
2026-05-04 00:26 -32.42072 -61.75131 34133 ft 391 kts 296°
2026-05-04 00:26 -32.39277 -61.80653 34130 ft 392 kts 296°
2026-05-04 00:27 -32.36484 -61.86166 34127 ft 391 kts 295°
2026-05-04 00:27 -32.33675 -61.91701 34124 ft 392 kts 295°
2026-05-04 00:28 -32.30863 -61.97227 34124 ft 390 kts 296°
2026-05-04 00:28 -32.28064 -62.02747 34125 ft 391 kts 296°
2026-05-04 00:29 -32.26661 -62.05510 33996 ft 395 kts 296°
2026-05-04 00:29 -32.25231 -62.08323 33529 ft 399 kts 296°
2026-05-04 00:29 -32.23810 -62.11108 33003 ft 399 kts 296°
2026-05-04 00:29 -32.22381 -62.13902 32462 ft 397 kts 296°
2026-05-04 00:30 -32.20961 -62.16676 31927 ft 395 kts 296°
2026-05-04 00:30 -32.19536 -62.19465 31393 ft 398 kts 295°
2026-05-04 00:30 -32.18107 -62.22262 30859 ft 401 kts 296°
2026-05-04 00:30 -32.16646 -62.25117 30319 ft 404 kts 296°
2026-05-04 00:31 -32.15196 -62.27951 29786 ft 407 kts 296°
2026-05-04 00:31 -32.13736 -62.30795 29267 ft 405 kts 296°
2026-05-04 00:31 -32.12271 -62.33637 28739 ft 400 kts 296°
2026-05-04 00:31 -32.10835 -62.36426 28212 ft 396 kts 296°
2026-05-04 00:32 -32.09429 -62.39157 27697 ft 392 kts 296°
2026-05-04 00:32 -32.08023 -62.41894 27178 ft 389 kts 296°
2026-05-04 00:32 -32.06623 -62.44619 26654 ft 386 kts 297°
2026-05-04 00:32 -32.05239 -62.47311 26138 ft 384 kts 297°
2026-05-04 00:33 -32.03858 -62.49997 25619 ft 382 kts 297°
2026-05-04 00:33 -32.01106 -62.55336 24578 ft 376 kts 297°
2026-05-04 00:33 -31.99760 -62.57944 24067 ft 372 kts 297°
2026-05-04 00:34 -31.98416 -62.60547 23563 ft 369 kts 297°
2026-05-04 00:34 -31.97086 -62.63121 23058 ft 367 kts 298°
2026-05-04 00:34 -31.95776 -62.65658 22564 ft 365 kts 298°
2026-05-04 00:34 -31.94445 -62.68231 22061 ft 364 kts 298°
2026-05-04 00:35 -31.93126 -62.70780 21561 ft 363 kts 298°
2026-05-04 00:35 -31.91824 -62.73293 21068 ft 360 kts 298°
2026-05-04 00:35 -31.90528 -62.75790 20576 ft 358 kts 298°
2026-05-04 00:35 -31.89220 -62.78308 20081 ft 357 kts 298°
2026-05-04 00:36 -31.87935 -62.80783 19595 ft 355 kts 298°
2026-05-04 00:36 -31.86650 -62.83258 19102 ft 353 kts 298°
2026-05-04 00:36 -31.85370 -62.85721 18614 ft 351 kts 298°
2026-05-04 00:36 -31.84096 -62.88170 18127 ft 350 kts 298°
2026-05-04 00:37 -31.82818 -62.90628 17638 ft 348 kts 298°
2026-05-04 00:37 -31.81566 -62.93034 17159 ft 347 kts 299°
2026-05-04 00:37 -31.80314 -62.95437 16678 ft 344 kts 299°
2026-05-04 00:37 -31.79064 -62.97833 16213 ft 341 kts 299°
2026-05-04 00:38 -31.77826 -63.00204 15770 ft 337 kts 299°
2026-05-04 00:38 -31.76614 -63.02530 15345 ft 333 kts 300°
2026-05-04 00:38 -31.75411 -63.04834 14915 ft 329 kts 300°
2026-05-04 00:38 -31.74228 -63.07096 14553 ft 324 kts 300°
2026-05-04 00:39 -31.73045 -63.09356 14188 ft 319 kts 300°
2026-05-04 00:39 -31.71896 -63.11550 13827 ft 316 kts 300°
2026-05-04 00:39 -31.70747 -63.13744 13466 ft 314 kts 300°
2026-05-04 00:39 -31.69613 -63.15908 13116 ft 313 kts 301°
2026-05-04 00:40 -31.68473 -63.18083 12757 ft 311 kts 301°
2026-05-04 00:40 -31.67332 -63.20257 12390 ft 308 kts 301°
2026-05-04 00:40 -31.66244 -63.22371 12035 ft 305 kts 299°
2026-05-04 00:40 -31.65218 -63.24539 11669 ft 302 kts 298°
2026-05-04 00:41 -31.64243 -63.26700 11327 ft 298 kts 298°
2026-05-04 00:41 -31.63282 -63.28836 11035 ft 291 kts 298°
2026-05-04 00:41 -31.62338 -63.30917 10748 ft 286 kts 298°
2026-05-04 00:41 -31.61409 -63.32942 10482 ft 279 kts 299°
2026-05-04 00:42 -31.60496 -63.34922 10241 ft 273 kts 299°
2026-05-04 00:42 -31.59595 -63.36872 10001 ft 269 kts 299°
2026-05-04 00:42 -31.58701 -63.38805 9763 ft 270 kts 300°
2026-05-04 00:42 -31.57807 -63.40735 9519 ft 270 kts 300°
2026-05-04 00:43 -31.56914 -63.42662 9276 ft 268 kts 300°
2026-05-04 00:43 -31.56030 -63.44570 9033 ft 266 kts 300°
2026-05-04 00:43 -31.55139 -63.46493 8791 ft 264 kts 300°
2026-05-04 00:43 -31.54276 -63.48353 8551 ft 263 kts 301°
2026-05-04 00:44 -31.53396 -63.50251 8304 ft 261 kts 301°
2026-05-04 00:44 -31.52538 -63.52099 8063 ft 259 kts 301°
2026-05-04 00:44 -31.51681 -63.53947 7823 ft 257 kts 302°
2026-05-04 00:44 -31.50825 -63.55788 7572 ft 255 kts 302°
2026-05-04 00:45 -31.49980 -63.57604 7333 ft 254 kts 302°
2026-05-04 00:45 -31.49131 -63.59428 7082 ft 251 kts 302°
2026-05-04 00:45 -31.48301 -63.61211 6835 ft 250 kts 303°
2026-05-04 00:45 -31.47470 -63.62996 6586 ft 249 kts 303°
2026-05-04 00:46 -31.46645 -63.64769 6334 ft 246 kts 303°
2026-05-04 00:46 -31.45823 -63.66534 6124 ft 244 kts 304°
2026-05-04 00:46 -31.45027 -63.68243 6096 ft 241 kts 304°
2026-05-04 00:46 -31.44233 -63.69947 6081 ft 230 kts 304°
2026-05-04 00:47 -31.43557 -63.71589 6081 ft 225 kts 296°
2026-05-04 00:47 -31.43292 -63.73461 5992 ft 238 kts 277°
2026-05-04 00:47 -31.43351 -63.75394 5863 ft 235 kts 274°
2026-05-04 00:47 -31.43429 -63.77271 5727 ft 226 kts 276°
2026-05-04 00:48 -31.43464 -63.79063 5603 ft 218 kts 277°
2026-05-04 00:48 -31.43471 -63.80822 5487 ft 213 kts 278°
2026-05-04 00:48 -31.43470 -63.82556 5380 ft 212 kts 278°
2026-05-04 00:48 -31.43468 -63.84277 5256 ft 214 kts 277°
2026-05-04 00:49 -31.43470 -63.86021 5131 ft 214 kts 277°
2026-05-04 00:49 -31.43476 -63.87762 5090 ft 211 kts 277°
2026-05-04 00:49 -31.43478 -63.89484 5089 ft 213 kts 277°
2026-05-04 00:49 -31.43482 -63.91193 5080 ft 206 kts 278°
2026-05-04 00:50 -31.43487 -63.92841 5081 ft 202 kts 278°
2026-05-04 00:50 -31.43489 -63.94509 5083 ft 202 kts 278°
2026-05-04 00:50 -31.43490 -63.96135 5080 ft 197 kts 278°
2026-05-04 00:50 -31.43493 -63.97709 5040 ft 194 kts 278°
2026-05-04 00:51 -31.43492 -63.99287 4915 ft 193 kts 278°
2026-05-04 00:51 -31.43492 -64.00871 4791 ft 192 kts 278°
2026-05-04 00:51 -31.43493 -64.02412 4666 ft 191 kts 278°
2026-05-04 00:51 -31.43495 -64.03969 4593 ft 190 kts 278°
2026-05-04 00:52 -31.43495 -64.05521 4586 ft 188 kts 278°
2026-05-04 00:52 -31.43498 -64.07032 4536 ft 182 kts 278°
2026-05-04 00:52 -31.43499 -64.08481 4395 ft 175 kts 278°
2026-05-04 00:52 -31.43500 -64.09897 4277 ft 169 kts 279°
2026-05-04 00:53 -31.43494 -64.11276 4159 ft 173 kts 279°
2026-05-04 00:53 -31.43487 -64.12695 4034 ft 174 kts 278°
2026-05-04 00:53 -31.43491 -64.14098 3912 ft 168 kts 278°
2026-05-04 00:53 -31.43468 -64.15446 3756 ft 164 kts 286°
2026-05-04 00:54 -31.43063 -64.16634 3562 ft 150 kts 319°
2026-05-04 00:54 -31.42242 -64.17318 3412 ft 143 kts 336°
2026-05-04 00:54 -31.41397 -64.17882 3286 ft 135 kts 334°
2026-05-04 00:54 -31.40589 -64.18460 3107 ft 137 kts 334°
2026-05-04 00:55 -31.39753 -64.19043 2945 ft 138 kts 335°
2026-05-04 00:55 -31.38917 -64.19619 2785 ft 140 kts 335°
2026-05-04 00:55 -31.38086 -64.20197 2609 ft 135 kts 334°
2026-05-04 00:55 -31.37285 -64.20706 2482 ft 127 kts 345°
2026-05-04 00:56 -31.36444 -64.20778 2380 ft 121 kts
2026-05-04 00:56 -31.35596 -64.20750 2255 ft 125 kts
2026-05-04 00:56 -31.34723 -64.20775 2103 ft 124 kts
2026-05-04 00:56 -31.33859 -64.20792 1940 ft 123 kts
2026-05-04 00:57 -31.32987 -64.20807 1762 ft 126 kts
2026-05-04 00:57 -31.32124 -64.20824 1614 ft 121 kts
2026-05-04 00:57 -31.31371 -64.20823 1613 ft 77 kts
2026-05-04 00:57 -31.31054 -64.20826 1613 ft 16 kts 359°
2026-05-04 00:58 -31.30961 -64.20826 1613 ft 13 kts
2026-05-04 00:58 -31.30881 -64.20821 1614 ft 5 kts 328°
2026-05-04 00:58 -31.30900 -64.20835 1613 ft 6 kts 188°
2026-05-04 00:58 -31.30976 -64.20834 1613 ft 14 kts 178°
2026-05-04 00:59 -31.31106 -64.20830 1613 ft 20 kts 179°
2026-05-04 00:59 -31.31247 -64.20829 1613 ft 20 kts 179°
2026-05-04 00:59 -31.31377 -64.20830 1613 ft 14 kts 192°
2026-05-04 00:59 -31.31449 -64.20882 1613 ft 7 kts 233°
2026-05-04 01:00 -31.31466 -64.20943 1613 ft 7 kts 269°
2026-05-04 01:00 -31.31465 -64.20992 1614 ft 2 kts 270°
2026-05-04 01:00 -31.31469 -64.21018 1613 ft 4 kts 245°
2026-05-04 01:00 -31.31491 -64.21049 1613 ft 5 kts 225°
2026-05-04 01:01 -31.31521 -64.21073 1613 ft 4 kts 195°
2026-05-04 01:01 -31.31546 -64.21085 1613 ft 3 kts 229°
2026-05-04 01:01 -31.31549 -64.21115 1613 ft 4 kts 275°
2026-05-04 01:01 -31.31550 -64.21150 1613 ft 3 kts 268°
2026-05-04 01:02 -31.31550 -64.21171 1613 ft 1 kts 268°
2026-05-04 01:02 -31.31551 -64.21176 1613 ft 0 kts 268°